Nashville, TN

10:12 PM CDT on October 13, 2019 (GMT -0500)
Nashville International

Weather History for KBNA - July, 2019

Change the Weather History Date:

Thursday, July 18, 2019

  Actual Average Record
Temperature  
Mean Temperature 83 °F 80 °F  
Max Temperature 91 °F 89 °F 99 °F (1952)
Min Temperature 74 °F 70 °F 57 °F (1976)
Degree Days  
Heating Degree Days 0    
Month to date heating degree days 0  
Since 1 June heating degree days 0  
Since 1 July heating degree days 0  
Cooling Degree Days 18    
Month to date cooling degree days 325  
Year to date cooling degree days 1030  
Since 1 June cooling degree days 694  
Growing Degree Days 32 (Base 50)    
Moisture  
Dew Point 72 °F    
Average Humidity 76    
Maximum Humidity 94    
Minimum Humidity 59    
Precipitation  
Precipitation 0.04 in 0.12 in 1.74 in (1878)
Month to date precipitation 1.06 2.20  
Year to date precipitation 38.87 27.64  
Sea Level Pressure  
Sea Level Pressure 30.01 in    
Wind  
Wind Speed 7 mph (SW)    
Max Wind Speed 15 mph    
Max Gust Speed 22 mph    
Visibility 10 miles    
Events Rain , Thunderstorm    
T = Trace of Precipitation, MM = Missing Value Source: NWS Daily Summary

Daily Weather History Graph

Daily Weather History Graph

Search for Another Location

Airport or City:

Astronomy

Jul. 18, 2019 Rise Set
Actual Time 5:43 AM CDT 8:02 PM CDT
Civil Twilight 5:13 AM CDT 8:31 PM CDT
Nautical Twilight 4:37 AM CDT 9:07 PM CDT
Astronomical Twilight 3:58 AM CDT 9:46 PM CDT
Moon 9:29 PM CDT (7/18) 7:10 AM CDT (7/18)
Length of Visible Light 15h 17m
Length of Day
14h 19m
Full, 97% of the Moon is Illuminated
Jul 18
Full
Jul 24
Last Quarter
Jul 31
New
Aug 7
First Quarter
Aug 15
Full

Hourly Weather History & Observations

Time (CDT) Temp. Heat Index Dew Point Humidity Pressure Visibility Wind Dir Wind Speed Gust Speed Precip Events Conditions
12:53 AM 77.0 °F - 69.1 °F 76% 30.00 in 10.0 mi Variable 4.6 mph - N/A   Scattered Clouds
1:53 AM 75.0 °F - 69.1 °F 82% 29.97 in 10.0 mi SSW 6.9 mph - N/A   Scattered Clouds
2:53 AM 75.0 °F - 69.1 °F 82% 29.97 in 10.0 mi South 10.4 mph - N/A   Mostly Cloudy
3:53 AM 75.0 °F - 69.1 °F 82% 29.97 in 10.0 mi South 10.4 mph - N/A   Mostly Cloudy
4:53 AM 75.0 °F - 69.1 °F 82% 29.99 in 10.0 mi SW 4.6 mph - N/A   Overcast
5:53 AM 73.9 °F - 69.1 °F 85% 30.00 in 10.0 mi SSW 3.5 mph - N/A   Mostly Cloudy
6:53 AM 75.0 °F - 69.1 °F 82% 30.01 in 10.0 mi South 4.6 mph - N/A   Overcast
7:53 AM 78.1 °F - 70.0 °F 76% 30.03 in 10.0 mi Variable 4.6 mph - N/A   Overcast
8:53 AM 80.1 °F 83.6 °F 71.1 °F 74% 30.04 in 10.0 mi West 4.6 mph - N/A   Mostly Cloudy
9:53 AM 82.9 °F 88.8 °F 73.0 °F 72% 30.03 in 10.0 mi West 8.1 mph - N/A   Mostly Cloudy
10:53 AM 84.9 °F 92.1 °F 73.9 °F 69% 30.04 in 10.0 mi West 8.1 mph - N/A   Overcast
11:19 AM 86.0 °F 93.8 °F 73.9 °F 67% 30.06 in 10.0 mi West 5.8 mph - N/A   Overcast
11:53 AM 87.1 °F 95.4 °F 73.9 °F 65% 30.04 in 10.0 mi West 4.6 mph - N/A   Mostly Cloudy
12:53 PM 89.1 °F 98.0 °F 73.9 °F 61% 30.03 in 10.0 mi WNW 8.1 mph - N/A   Mostly Cloudy
1:53 PM 90.0 °F 97.9 °F 73.0 °F 57% 30.00 in 10.0 mi NW 8.1 mph - N/A   Mostly Cloudy
2:53 PM 84.0 °F 89.6 °F 72.0 °F 67% 30.00 in 4.0 mi NNW 13.8 mph 23.0 mph 0.00 in Rain Light Rain
3:22 PM 86.0 °F 93.0 °F 73.0 °F 65% 30.01 in 10.0 mi Calm Calm - 0.02 in Thunderstorm Mostly Cloudy
3:37 PM 82.9 °F 89.4 °F 73.9 °F 74% 30.02 in 10.0 mi SW 8.1 mph - 0.02 in Thunderstorm Thunderstorm
3:53 PM 81.0 °F 85.2 °F 72.0 °F 74% 30.01 in 10.0 mi WSW 9.2 mph - 0.02 in Thunderstorm Thunderstorm
4:53 PM 78.1 °F - 73.0 °F 84% 30.01 in 10.0 mi SSW 6.9 mph - 0.02 in Thunderstorm Thunderstorm
5:11 PM 78.1 °F - 73.0 °F 84% 30.02 in 10.0 mi South 10.4 mph - N/A   Mostly Cloudy
5:53 PM 79.0 °F - 73.0 °F 82% 29.99 in 10.0 mi SSW 6.9 mph - N/A   Mostly Cloudy
6:53 PM 79.0 °F - 73.0 °F 82% 30.00 in 10.0 mi SSW 4.6 mph - N/A   Mostly Cloudy
7:53 PM 78.1 °F - 73.0 °F 84% 29.99 in 10.0 mi South 5.8 mph - N/A   Mostly Cloudy
8:53 PM 77.0 °F - 73.0 °F 88% 30.01 in 10.0 mi South 5.8 mph - N/A   Mostly Cloudy
9:53 PM 75.9 °F - 73.0 °F 91% 30.01 in 10.0 mi South 6.9 mph - N/A   Mostly Cloudy
10:53 PM 75.9 °F - 73.0 °F 91% 30.00 in 10.0 mi South 5.8 mph - N/A   Mostly Cloudy
11:53 PM 75.9 °F - 71.1 °F 85% 30.01 in 10.0 mi SSW 3.5 mph - N/A   Scattered Clouds